Simultaneous Nadir Overpasses (SNOs) Predictions

Prediction of SNOs between GOES-16 and NOAA-20 Satellite Orbit:

Table of predicted SNOs for the next 14.0 days since TLE Epoch: 6/7/2019
Index Date Time (GOES-16) GOES-16 Lat,Lon NOAA-20 Lat,Lon Distance(km) Time Diff (sec)
1 06/08/2019 06:32:26 -0.00, -75.20 0.27, -76.51 148.89 80
2 06/09/2019 06:11:01 -0.00, -75.20 -0.72, -71.97 367.83 80
3 06/10/2019 18:32:57 0.01, -75.21 -0.43, -77.28 235.88 80
4 06/11/2019 18:16:51 0.01, -75.21 0.56, -72.75 281.42 80
5 06/13/2019 06:38:39 -0.01, -75.23 0.61, -78.02 317.44 80
6 06/14/2019 06:17:13 -0.01, -75.24 -0.38, -73.48 200.12 80
7 06/15/2019 18:39:09 0.02, -75.26 -0.76, -78.79 402.59 80
8 06/16/2019 18:23:04 0.02, -75.27 0.24, -74.25 115.29 80
9 06/18/2019 06:44:51 -0.02, -75.29 0.94, -79.52 482.66 80
10 06/19/2019 06:23:27 -0.03, -75.31 -0.11, -75.00 35.60 80




NCC Satellite Simultaneous Nadir Overpasses (SNOs) Prediction Service
